IRIDIUM 33 DEB

Last updated on Sat Aug 15 2026 00:02:31 GMT+0000 (Coordinated Universal Time)

1 46979U 97051ACM 26220.46555373 .00041366 00000+0 19347-2 0 9992 2 46979 86.3159 295.0123 0014733 96.8650 263.4270 15.19495070390156
UTC large
Height (km)
Speed (km/s)
/
Latitude / Longitude
Inclination (degrees)
Orbital Period (minutes)
Azimuth
Elevation
Range (km)
Doppler Factor

Next 0 passes for location: London (51.5072 / 0.1276)

No passes found over London.
IRIDIUM 33 DEB